Regional Weather Roundup
Issued by NWS

Home | Current Version | Previous Version | Graphics & Text | Print | Product List | Glossary On
Versions: 1 2 3 4 5 6 7 8 9 10 11 12 13 14 15 16 17 18 19 20 21 22 23 24 25 26 27 28 29 30 31 32 33 34 35 36 37 38 39 40 41 42 43 44 45 46 47 48 49 50
000
ASUS43 KLOT 240858
RWRIL

ILLINOIS REGIONAL WEATHER ROUNDUP
NATIONAL WEATHER SERVICE CHICAGO/ROMEOVILLE IL
300 AM CST MON NOV 24 2014

NOTE: "FAIR" INDICATES FEW OR NO CLOUDS BELOW 12,000 FEET WITH NO
SIGNIFICANT WEATHER AND/OR OBSTRUCTIONS TO VISIBILITY.

* THESE STATIONS ARE NOT UNDER NWS QUALITY CONTROL. THEY ALSO MAY NOT
  REPORT WEATHER SUCH AS PRECIPITATION OR FOG.

ILZ001-002-007-009-015-016-024-241000-
NORTHWEST ILLINOIS

CITY           SKY/WX    TMP DP  RH WIND       PRES   REMARKS
MOLINE         CLOUDY    39  36  89 NW21G28   29.18R WCI  29
$$

ILZ003-004-008-010-011-017-018-241000-
NORTH CENTRAL ILLINOIS

CITY           SKY/WX    TMP DP  RH WIND       PRES   REMARKS
ROCKFORD       NOT AVBL
$$

ILZ005-006-012>014-019>023-241000-
NORTHEAST ILLINOIS

CITY           SKY/WX    TMP DP  RH WIND       PRES   REMARKS
CHICAGO-OHARE  CLOUDY    48  47  96 W8        29.07S
CHICAGO-MIDWAY LGT RAIN  50  49  96 SW8       29.09R
AURORA         CLOUDY    48  45  89 SW7       29.09S FOG
WAUKEGAN       CLOUDY    46  46 100 VRB5      29.05F FOG
DUPAGE AIRPORT CLOUDY    48  47  96 SW7       29.08S FOG
WHEELING       CLOUDY    49  47  93 W7        29.09S
NORTHERLY ISL    N/A     50  47  89 SW6         N/A
$$

LMZ740>746-241000-
SOUTHERN LAKE MICHIGAN

STATION/POSITION SKY/WX   TEMP    WIND        PRES    VSBY  WAVE
                          AIR SEA DIR/SP/G                  HT/PER
                          (F)     (DEG/KT/KT) (MB)    (MI)  (FT/S)
SOUTHERN BUOY              46 42  210/ 10/ 12  983.5F         1/ 3
WAUKEGAN HARBOR            47     240/  6/  9   N/A
HARRISON CRIB              50     240/ 12/ 17   N/A
BURNHAM HARBOR             50     230/  6/ 11   N/A
CALUMET HARBOR             50     220/  7/ 12  984.3R
MICHIGAN CITY              50     200/ 17/ 19   N/A
$$

ILZ025>027-034>036-040-047-049-050-058-095>099-241000-
WEST-CENTRAL ILLINOIS

CITY           SKY/WX    TMP DP  RH WIND       PRES   REMARKS
$$

ILZ028>032-037-038-041>044-048-051>054-059>061-241000-
CENTRAL ILLINOIS

CITY           SKY/WX    TMP DP  RH WIND       PRES   REMARKS
BLOOMINGTON    LGT RAIN  50  50 100 W7        29.15F FOG
DECATUR        LGT RAIN  52  52 100 SW7       29.15F VSB 1/2
PEORIA         NOT AVBL
SPRINGFIELD    LGT RAIN  45  43  93 W15G23    29.19R
TAYLORVILLE    NOT AVBL
$$

ILZ033-039-045-046-055>057-062-063-241000-
EAST-CENTRAL ILLINOIS

CITY           SKY/WX    TMP DP  RH WIND       PRES   REMARKS
CHAMPAIGN      LGT RAIN  52  52 100 S10       29.15F FOG
$$

ILZ079-100>102-241000-
SOUTHWEST ILLINOIS

CITY           SKY/WX    TMP DP  RH WIND       PRES   REMARKS
CAHOKIA*       LGT RAIN  47  43  86 W15G24    29.29R
$$

ILZ064>066-069>071-074>076-080>082-084>086-088>090-092>094-241000-
SOUTH-CENTRAL ILLINOIS

CITY           SKY/WX    TMP DP  RH WIND       PRES   REMARKS
CARBONDALE     TSTM      56  51  84 SW21G28   29.26R
$$

ILZ067-068-072-073-078-083-087-091-241000-
SOUTHEAST ILLINOIS

CITY           SKY/WX    TMP DP  RH WIND       PRES   REMARKS
LAWRENCEVILLE  CLOUDY    58 N/A N/A S17G23    29.23F
$$

ABBREVIATIONS USED IN REMARKS
   TC - TEMPERATURE IN CELSIUS
  WCI - WIND CHILL INDEX
   HX - HEAT INDEX
  VSB - VISIBILITY
$$




USA.gov is the U.S. government's official web portal to all federal, state and local government web resources and services.